KF5CME Weather Reports


time (UTC)temp
C
wind
direction
speed
KPH
gust
KPH
rain 1hr
cm
rain 24hr
cm
rain mn
cm
humidity
%
barometer
mb
20260509112019 20 0 0.0 1.6 0.00 0.00 0.00 93 1009.3
20260509111537 20 0 0.0 1.6 0.00 0.00 0.00 93 1009.3
20260509111020 20 0 0.0 1.6 0.00 0.00 0.00 93 1009.2
20260509110523 20 0 0.0 1.6 0.00 0.00 0.00 93 1009.1
20260509110045 20 0 0.0 1.6 0.00 0.00 0.00 92 1009.0
20260509105521 20 0 0.0 1.6 0.00 0.00 0.00 92 1008.9
20260509105022 20 0 0.0 1.6 0.00 0.00 0.00 92 1009.0
20260509104549 20 0 0.0 1.6 0.00 0.00 0.00 92 1009.0
20260509104020 20 0 0.0 1.6 0.00 0.00 0.00 92 1009.1
20260509103519 20 0 0.0 0.0 0.00 0.00 0.00 92 1009.1
20260509103038 20 0 0.0 0.0 0.00 0.00 0.00 92 1009.1
20260509102525 20 0 0.0 0.0 0.00 0.00 0.00 92 1008.9
20260509102021 20 0 0.0 1.6 0.00 0.00 0.00 92 1008.9
20260509101538 20 0 0.0 1.6 0.00 0.00 0.00 92 1008.8
20260509101023 20 0 0.0 1.6 0.00 0.00 0.00 92 1008.8
20260509100518 20 0 0.0 1.6 0.00 0.00 0.00 92 1008.7
20260509100038 20 0 0.0 3.2 0.00 0.00 0.00 93 1008.2
20260509095521 20 132 0.0 3.2 0.00 0.00 0.00 93 1008.1
20260509095019 20 132 0.0 3.2 0.00 0.00 0.00 93 1008.0
20260509094537 20 0 0.0 4.8 0.00 0.00 0.00 93 1008.1
20260509094020 20 0 0.0 4.8 0.00 0.00 0.00 92 1007.8
20260509093518 20 0 0.0 6.4 0.00 0.00 0.00 92 1007.5
20260509093039 20 0 0.0 9.7 0.00 0.00 0.00 92 1007.5
20260509092518 20 0 1.6 9.7 0.00 0.00 0.00 92 1007.6
20260509092019 20 135 0.0 4.8 0.00 0.00 0.00 92 1007.6
20260509091537 20 0 0.0 4.8 0.00 0.00 0.00 92 1007.7
20260509091019 20 0 0.0 4.8 0.00 0.00 0.00 91 1007.9
20260509090521 20 55 0.0 4.8 0.00 0.00 0.00 91 1008.0
20260509090046 20 0 0.0 4.8 0.00 0.00 0.00 91 1008.1
20260509085520 20 127 0.0 4.8 0.00 0.08 0.00 91 1008.3
20260509085022 20 0 0.0 4.8 0.00 0.08 0.00 90 1008.4
20260509084540 20 158 0.0 6.4 0.00 0.08 0.00 90 1008.5
20260509084019 20 42 0.0 6.4 0.00 0.08 0.00 90 1008.8
20260509083521 20 0 0.0 3.2 0.00 0.08 0.00 90 1008.9
20260509083044 20 145 0.0 3.2 0.00 0.08 0.00 91 1009.0
20260509082520 20 0 0.0 1.6 0.00 0.08 0.00 91 1009.3
20260509082020 20 0 0.0 1.6 0.00 0.08 0.00 91 1009.5
20260509081543 20 0 0.0 3.2 0.00 0.08 0.00 91 1009.7
20260509081024 20 0 0.0 3.2 0.00 0.08 0.00 91 1009.8
20260509080521 20 134 0.0 3.2 0.00 0.08 0.00 91 1009.8
20260509080038 20 0 0.0 1.6 0.00 0.08 0.00 91 1010.1
20260509075524 20 0 0.0 1.6 0.00 0.08 0.00 91 1010.3
20260509075023 20 0 0.0 1.6 0.00 0.08 0.00 91 1010.4
20260509074548 20 0 0.0 0.0 0.00 0.08 0.00 91 1010.4
20260509074020 20 0 0.0 0.0 0.00 0.08 0.00 91 1010.4
20260509073519 20 0 0.0 0.0 0.00 0.08 0.00 91 1010.4
20260509073038 20 0 0.0 0.0 0.00 0.08 0.00 91 1010.3
20260509072530 20 0 0.0 0.0 0.00 0.08 0.00 91 1010.4
20260509072023 20 0 0.0 0.0 0.00 0.08 0.00 91 1010.4
20260509071538 20 0 0.0 0.0 0.00 0.08 0.00 91 1010.4
20260509071020 20 0 0.0 0.0 0.00 0.08 0.00 90 1010.4
20260509070521 20 0 0.0 0.0 0.00 0.08 0.00 90 1010.2
20260509070040 20 0 0.0 1.6 0.00 0.08 0.00 90 1010.1
20260509065520 20 0 0.0 3.2 0.00 0.08 0.00 90 1010.2
20260509065024 20 0 0.0 3.2 0.00 0.08 0.00 89 1010.2
20260509064539 20 0 0.0 3.2 0.00 0.08 0.00 89 1009.9
20260509064022 20 0 0.0 3.2 0.00 0.08 0.00 89 1009.9
20260509063524 20 117 0.0 4.8 0.00 0.08 0.00 89 1009.8
20260509063038 20 329 0.0 4.8 0.00 0.08 0.00 89 1009.9
20260509062525 20 188 0.0 3.2 0.00 0.08 0.00 89 1010.0
20260509062022 20 154 0.0 3.2 0.00 0.08 0.00 89 1010.3
20260509061539 20 118 0.0 3.2 0.00 0.08 0.00 89 1010.4
20260509061022 20 0 0.0 3.2 0.00 0.08 0.00 88 1010.3
20260509060520 20 148 0.0 3.2 0.00 0.08 0.00 88 1010.4
20260509060038 20 0 0.0 1.6 0.00 0.08 0.00 88 1010.6
20260509055525 20 0 0.0 1.6 0.00 0.08 0.00 88 1010.2
20260509055021 20 0 0.0 0.0 0.00 0.08 0.00 87 1010.3
20260509054545 20 0 0.0 0.0 0.00 0.08 0.00 87 1010.6
20260509054021 20 0 0.0 1.6 0.00 0.08 0.00 87 1010.5
20260509053523 20 0 0.0 1.6 0.00 0.08 0.00 87 1010.2
20260509053137 20 17 0.0 1.6 0.00 0.08 0.00 86 1010.3
20260509052520 20 0 0.0 1.6 0.00 0.08 0.00 86 1010.3
20260509052023 20 0 0.0 1.6 0.00 0.08 0.00 86 1010.4
20260509051547 20 0 0.0 0.0 0.00 0.08 0.00 86 1010.6
20260509051023 20 0 0.0 3.2 0.00 0.08 0.00 86 1010.7
20260509050525 20 0 0.0 4.8 0.00 0.08 0.00 86 1010.7
20260509050045 20 0 0.0 4.8 0.00 0.08 0.00 85 1010.3
20260509045522 20 9 0.0 6.4 0.00 0.08 0.08 85 1010.0
20260509045022 20 0 0.0 9.7 0.00 0.08 0.08 85 1009.6
20260509044537 21 191 1.6 9.7 0.00 0.08 0.08 85 1009.2
20260509044020 21 0 1.6 6.4 0.00 0.08 0.08 85 1009.1
20260509043520 21 153 1.6 6.4 0.00 0.08 0.08 84 1009.2
20260509043042 21 0 0.0 3.2 0.00 0.08 0.08 85 1009.6
20260509042524 21 0 0.0 3.2 0.00 0.08 0.08 85 1010.2
20260509042024 21 163 0.0 3.2 0.00 0.08 0.08 85 1010.3
20260509041539 21 168 0.0 1.6 0.00 0.08 0.08 85 1010.4
20260509041020 21 0 0.0 0.0 0.00 0.08 0.08 84 1010.7
20260509040524 21 0 0.0 0.0 0.00 0.08 0.08 84 1010.7
20260509040041 21 0 0.0 0.0 0.00 0.08 0.08 84 1010.6
20260509035521 21 0 0.0 0.0 0.00 0.08 0.08 84 1010.5
20260509035021 21 0 0.0 0.0 0.00 0.08 0.08 84 1010.5
20260509034539 21 0 0.0 0.0 0.00 0.08 0.08 84 1010.2
20260509034022 21 0 0.0 0.0 0.00 0.08 0.08 84 1010.2
20260509033522 21 0 0.0 0.0 0.00 0.08 0.08 83 1010.2
20260509033044 21 0 0.0 0.0 0.00 0.08 0.08 83 1010.2
20260509032521 21 0 0.0 0.0 0.00 0.08 0.08 83 1009.9
20260509032021 21 0 0.0 0.0 0.00 0.08 0.08 83 1009.8
20260509031538 21 0 0.0 0.0 0.00 0.08 0.08 83 1009.5
20260509031020 21 0 0.0 0.0 0.00 0.08 0.08 83 1009.7
20260509030520 21 0 0.0 0.0 0.00 0.08 0.08 83 1009.6
20260509030042 21 0 0.0 0.0 0.00 0.08 0.08 83 1009.7
20260509025521 21 0 0.0 0.0 0.00 0.08 0.08 83 1009.7
20260509025019 21 0 0.0 0.0 0.00 0.08 0.08 83 1009.7
20260509024543 21 0 0.0 0.0 0.00 0.08 0.08 82 1009.6
20260509024019 21 0 0.0 0.0 0.00 0.08 0.08 82 1009.4
20260509023521 21 0 0.0 0.0 0.00 0.08 0.08 82 1009.3
20260509023045 21 0 0.0 0.0 0.00 0.08 0.08 82 1009.3
20260509022519 21 0 0.0 0.0 0.00 0.08 0.08 82 1009.3
20260509022021 21 0 0.0 0.0 0.00 0.08 0.08 82 1009.3
20260509021537 21 0 0.0 0.0 0.00 0.08 0.08 81 1009.3
20260509021018 21 0 0.0 0.0 0.00 0.08 0.08 81 1009.1
20260509020520 21 0 0.0 0.0 0.00 0.08 0.08 80 1009.0
20260509020044 21 0 0.0 0.0 0.00 0.08 0.08 80 1009.1
20260509015518 21 0 0.0 0.0 0.00 0.08 0.08 80 1009.1
20260509015019 21 0 0.0 0.0 0.00 0.08 0.08 80 1009.0
20260509014539 21 0 0.0 0.0 0.00 0.08 0.08 80 1008.9
20260509014020 21 0 0.0 0.0 0.00 0.08 0.08 80 1008.8
20260509013521 21 0 0.0 0.0 0.00 0.08 0.08 79 1008.8
20260509013057 21 0 0.0 0.0 0.00 0.08 0.08 79 1008.6
20260509012519 21 0 0.0 0.0 0.00 0.08 0.08 78 1008.7
20260509012025 21 0 0.0 0.0 0.00 0.08 0.08 77 1008.7
20260509011539 21 0 0.0 0.0 0.00 0.08 0.08 77 1008.5
20260509011020 22 0 0.0 0.0 0.00 0.08 0.08 77 1008.5
20260509010518 22 0 0.0 0.0 0.00 0.08 0.08 76 1008.5
20260509010037 22 0 0.0 3.2 0.00 0.08 0.08 76 1008.3
20260509005521 22 0 0.0 3.2 0.00 0.08 0.08 75 1008.2
20260509005021 22 0 0.0 3.2 0.00 0.08 0.08 75 1008.2
20260509004542 22 0 0.0 3.2 0.00 0.08 0.08 74 1008.3
20260509004020 22 0 0.0 3.2 0.00 0.08 0.08 73 1008.3
20260509003520 22 0 0.0 1.6 0.00 0.08 0.08 73 1008.3
20260509003055 22 0 0.0 1.6 0.00 0.08 0.08 74 1008.2
20260509002518 22 0 0.0 3.2 0.00 0.08 0.08 71 1008.2
20260509002018 23 149 0.0 3.2 0.00 0.08 0.08 71 1008.3
20260509001537 23 0 0.0 4.8 0.00 0.08 0.08 71 1008.2
20260509001021 23 215 0.0 4.8 0.00 0.08 0.08 69 1008.2
20260509000526 23 166 0.0 6.4 0.00 0.08 0.08 70 1008.4
20260509000039 23 0 0.0 6.4 0.00 0.08 0.08 69 1008.5
20260508235522 23 0 1.6 4.8 0.00 0.08 0.08 69 1008.5
20260508235023 23 144 0.0 4.8 0.00 0.08 0.08 68 1008.6
20260508234541 23 0 0.0 4.8 0.00 0.08 0.08 69 1008.6
20260508234020 23 0 1.6 4.8 0.00 0.08 0.08 67 1008.7
20260508233523 24 134 0.0 3.2 0.00 0.08 0.08 68 1008.6
20260508233037 24 0 0.0 3.2 0.00 0.08 0.08 68 1008.6
20260508232522 24 150 0.0 4.8 0.00 0.08 0.08 67 1008.7
20260508232022 24 276 0.0 4.8 0.00 0.08 0.08 67 1008.7
20260508231541 24 264 0.0 4.8 0.00 0.08 0.08 68 1008.8
20260508231022 24 177 1.6 4.8 0.00 0.08 0.08 67 1008.8
20260508230520 24 0 0.0 4.8 0.00 0.08 0.08 67 1008.9
20260508230044 24 161 0.0 4.8 0.00 0.08 0.08 67 1008.8
20260508225526 24 210 1.6 4.8 0.00 0.08 0.08 67 1008.7
20260508225021 25 259 1.6 6.4 0.00 0.08 0.08 65 1008.8
20260508224545 25 144 1.6 6.4 0.00 0.08 0.08 65 1008.7
20260508224020 25 250 3.2 6.4 0.00 0.08 0.08 66 1008.7
20260508223524 25 240 1.6 6.4 0.00 0.08 0.08 67 1008.6
20260508223039 25 60 0.0 4.8 0.00 0.08 0.08 66 1008.5
20260508222521 25 89 1.6 6.4 0.00 0.08 0.08 66 1008.3
20260508222022 25 0 1.6 6.4 0.00 0.08 0.08 65 1008.2
20260508221540 25 160 1.6 6.4 0.00 0.08 0.08 65 1008.0
20260508221022 25 312 1.6 6.4 0.00 0.08 0.08 66 1008.0
20260508220526 25 123 1.6 6.4 0.00 0.08 0.08 66 1008.0
20260508220037 24 181 1.6 6.4 0.00 0.08 0.08 65 1007.6
20260508215521 23 122 1.6 6.4 0.00 0.08 0.08 68 1007.6
20260508215025 23 107 1.6 6.4 0.00 0.08 0.08 71 1007.8
20260508214536 23 104 0.0 3.2 0.00 0.08 0.08 72 1008.5
20260508214022 23 112 0.0 3.2 0.00 0.08 0.08 71 1009.1
20260508213522 23 0 0.0 3.2 0.00 0.08 0.08 72 1009.2
20260508213037 23 0 0.0 1.6 0.00 0.08 0.08 70 1009.4
20260508212524 23 0 0.0 1.6 0.00 0.08 0.08 70 1009.4
20260508212022 23 0 0.0 0.0 0.00 0.08 0.08 70 1009.4
20260508211543 23 0 0.0 1.6 0.00 0.08 0.08 68 1009.7
20260508211023 23 0 0.0 1.6 0.00 0.08 0.08 68 1009.6
20260508210520 23 0 0.0 1.6 0.00 0.08 0.08 68 1009.9
20260508210043 23 0 0.0 1.6 0.00 0.08 0.08 67 1010.0
20260508205522 23 0 0.0 1.6 0.00 0.08 0.08 67 1010.1
20260508205024 23 0 0.0 1.6 0.00 0.08 0.08 66 1010.1
20260508204538 24 0 0.0 3.2 0.00 0.08 0.08 65 1010.1
20260508204021 24 0 0.0 3.2 0.00 0.08 0.08 63 1010.1
20260508203519 24 0 0.0 4.8 0.00 0.08 0.08 64 1010.1
20260508203046 24 0 0.0 4.8 0.00 0.08 0.08 63 1010.0
20260508202524 25 0 0.0 3.2 0.00 0.08 0.08 61 1010.0
20260508202020 25 0 0.0 4.8 0.00 0.08 0.08 61 1010.1
20260508201543 26 282 0.0 4.8 0.00 0.08 0.08 59 1010.0
20260508201022 26 167 0.0 4.8 0.00 0.08 0.08 59 1010.1
20260508200519 26 271 0.0 4.8 0.00 0.08 0.08 60 1010.2
20260508200038 26 259 1.6 6.4 0.00 0.08 0.08 57 1010.1
20260508195524 26 0 0.0 6.4 0.00 0.08 0.08 60 1010.2
20260508195020 26 238 1.6 6.4 0.00 0.08 0.08 60 1010.3
20260508194540 26 8 1.6 9.7 0.00 0.08 0.08 61 1010.4
20260508194022 26 65 3.2 9.7 0.00 0.08 0.08 60 1010.4
20260508193522 25 174 1.6 4.8 0.00 0.08 0.08 60 1010.4
20260508193043 25 110 1.6 4.8 0.00 0.08 0.08 60 1010.7
20260508192523 26 134 1.6 8.0 0.00 0.08 0.08 60 1010.8
20260508192022 26 189 1.6 8.0 0.00 0.08 0.08 59 1010.8
20260508191541 26 232 1.6 8.0 0.00 0.08 0.08 60 1010.8
20260508191022 26 187 1.6 9.7 0.00 0.08 0.08 60 1010.8
20260508190523 25 50 1.6 11.3 0.00 0.08 0.08 61 1010.7
20260508190043 25 70 1.6 11.3 0.00 0.08 0.08 61 1010.8
20260508185520 25 196 1.6 11.3 0.00 0.08 0.08 60 1011.1
20260508185019 25 273 1.6 6.4 0.00 0.08 0.08 59 1011.1
20260508184541 25 0 1.6 6.4 0.00 0.08 0.08 60 1011.0
20260508184019 25 69 1.6 6.4 0.00 0.08 0.08 61 1011.0
20260508183522 25 267 1.6 6.4 0.00 0.08 0.08 58 1011.1
20260508183041 25 202 0.0 6.4 0.00 0.08 0.08 61 1011.2
20260508182523 25 107 1.6 6.4 0.00 0.08 0.08 61 1011.4
20260508182022 25 131 1.6 6.4 0.00 0.08 0.08 59 1011.5
20260508181543 25 124 0.0 6.4 0.00 0.08 0.08 59 1011.5
20260508181023 25 246 1.6 6.4 0.00 0.08 0.08 61 1011.6
20260508180522 25 139 1.6 4.8 0.00 0.08 0.08 60 1011.8
20260508180039 24 91 0.0 6.4 0.00 0.08 0.08 61 1011.9
20260508175525 24 96 1.6 8.0 0.00 0.08 0.08 60 1012.0
20260508175022 24 101 1.6 8.0 0.00 0.08 0.08 61 1012.2
20260508174556 23 215 1.6 6.4 0.00 0.08 0.08 62 1012.2
20260508174022 23 88 1.6 6.4 0.00 0.08 0.08 64 1012.2
20260508173522 23 84 0.0 4.8 0.00 0.08 0.08 68 1012.3
20260508173035 22 0 0.0 4.8 0.00 0.08 0.08 66 1012.5
20260508172519 22 0 0.0 6.4 0.00 0.08 0.08 67 1012.6
20260508172019 22 0 0.0 6.4 0.00 0.08 0.08 66 1012.8
20260508171542 22 121 1.6 6.4 0.00 0.08 0.08 65 1012.9
20260508171022 22 0 0.0 4.8 0.00 0.08 0.08 67 1012.9
20260508170522 22 0 0.0 4.8 0.00 0.08 0.08 67 1013.0
20260508170040 21 111 0.0 4.8 0.00 0.08 0.08 67 1013.2
20260508165522 21 267 1.6 6.4 0.00 0.08 0.08 68 1013.3
20260508165022 21 0 1.6 6.4 0.00 0.08 0.08 68 1013.4
20260508164545 21 277 1.6 6.4 0.00 0.08 0.08 67 1013.5
20260508164022 21 167 1.6 6.4 0.00 0.08 0.08 68 1013.6
20260508163520 21 202 1.6 6.4 0.00 0.08 0.08 68 1013.8
20260508163105 21 231 0.0 4.8 0.00 0.08 0.08 67 1013.9
20260508162522 21 281 1.6 6.4 0.00 0.08 0.08 66 1014.0
20260508162021 21 32 0.0 6.4 0.00 0.08 0.08 67 1014.0
20260508161539 21 181 0.0 4.8 0.00 0.08 0.08 67 1013.9
20260508161023 21 17 1.6 6.4 0.00 0.08 0.08 66 1014.0
20260508160523 22 190 1.6 6.4 0.00 0.08 0.08 66 1013.8
20260508160037 22 182 0.0 8.0 0.00 0.08 0.08 66 1013.9
20260508155520 22 220 1.6 8.0 0.00 0.08 0.08 68 1013.9
20260508155019 22 0 1.6 6.4 0.00 0.08 0.08 67 1014.0
20260508154537 22 133 1.6 12.9 0.00 0.08 0.08 67 1014.2
20260508154020 22 0 1.6 12.9 0.00 0.08 0.08 65 1014.2
20260508153522 22 163 3.2 12.9 0.00 0.08 0.08 64 1014.1
20260508153040 22 115 1.6 6.4 0.00 0.08 0.08 65 1014.2
20260508152522 22 256 1.6 9.7 0.00 0.08 0.08 67 1014.1
20260508152022 22 184 1.6 9.7 0.00 0.08 0.08 66 1014.0
20260508151542 21 102 0.0 6.4 0.00 0.08 0.08 68 1014.0
20260508151025 22 117 1.6 6.4 0.00 0.08 0.08 67 1014.1
20260508150522 22 155 1.6 6.4 0.00 0.08 0.08 67 1014.2
20260508150037 21 247 0.0 6.4 0.00 0.08 0.08 69 1014.3
20260508145522 21 199 1.6 6.4 0.00 0.08 0.08 68 1014.1
20260508145020 21 175 1.6 4.8 0.00 0.08 0.08 68 1014.0
20260508144539 21 0 0.0 6.4 0.00 0.08 0.08 67 1014.2
20260508144020 21 0 1.6 6.4 0.00 0.08 0.08 69 1014.3
20260508143521 20 0 0.0 4.8 0.00 0.08 0.08 73 1014.3
20260508143048 20 87 0.0 4.8 0.00 0.08 0.08 75 1014.4
20260508142520 20 165 1.6 12.9 0.00 0.08 0.08 79 1014.5
20260508142020 19 0 0.0 12.9 0.00 0.08 0.08 78 1014.5
20260508141540 18 161 1.6 12.9 0.00 0.08 0.08 80 1014.4
20260508141021 18 0 0.0 6.4 0.00 0.08 0.08 84 1014.4
20260508140522 17 239 0.0 6.4 0.00 0.08 0.08 87 1014.5
20260508140041 17 0 0.0 6.4 0.00 0.08 0.08 89 1014.3
20260508135520 17 0 0.0 6.4 0.00 0.08 0.08 90 1014.3
20260508135021 16 172 0.0 3.2 0.00 0.08 0.08 92 1014.5
20260508134540 16 147 0.0 3.2 0.00 0.08 0.08 93 1014.4
20260508134020 16 0 0.0 3.2 0.00 0.08 0.08 93 1014.3
20260508133523 15 0 0.0 3.2 0.00 0.08 0.08 93 1014.5
20260508133044 15 0 0.0 1.6 0.00 0.08 0.08 94 1014.5
20260508132521 15 0 0.0 1.6 0.00 0.08 0.08 94 1014.6
20260508132020 15 0 0.0 1.6 0.00 0.08 0.08 94 1014.6
20260508131545 15 0 0.0 0.0 0.00 0.08 0.08 93 1014.7
20260508131020 15 0 0.0 0.0 0.00 0.08 0.08 94 1014.9
20260508130522 15 0 0.0 1.6 0.00 0.08 0.08 94 1014.9
20260508130054 15 0 0.0 3.2 0.00 0.08 0.08 95 1014.7
20260508125523 14 0 0.0 3.2 0.00 0.08 0.08 95 1014.9
20260508125019 14 0 0.0 3.2 0.00 0.08 0.08 94 1014.8
20260508124542 14 0 0.0 1.6 0.00 0.08 0.08 94 1014.8
20260508124020 14 0 0.0 3.2 0.00 0.08 0.08 94 1015.0
20260508123522 14 0 0.0 3.2 0.00 0.08 0.08 94 1014.8
20260508123039 14 117 0.0 3.2 0.00 0.08 0.08 94 1014.8
20260508122521 14 0 0.0 3.2 0.00 0.08 0.08 94 1014.7
20260508122019 13 0 0.0 3.2 0.00 0.08 0.08 94 1014.6
20260508121537 13 0 0.0 3.2 0.00 0.08 0.08 94 1014.7
20260508121021 13 0 0.0 1.6 0.00 0.08 0.08 94 1014.7
20260508120519 13 0 0.0 1.6 0.00 0.08 0.08 94 1014.6
20260508120037 13 127 0.0 1.6 0.00 0.08 0.08 94 1014.5
20260508115519 13 0 0.0 3.2 0.00 0.08 0.08 94 1014.5
20260508115059 13 0 0.0 3.2 0.00 0.08 0.08 94 1014.6
20260508114541 13 0 0.0 3.2 0.00 0.08 0.08 94 1014.8
20260508114024 13 165 0.0 3.2 0.00 0.08 0.08 94 1015.0
20260508113523 13 148 0.0 3.2 0.00 0.08 0.08 94 1015.3
20260508113048 13 0 0.0 3.2 0.00 0.08 0.08 94 1015.7
20260508112521 13 0 0.0 4.8 0.00 0.08 0.08 94 1015.6